�N����,����,�~����,�C��,���x,�C��,����,���ϕ���,�ő�u�ԕ���,�ő厞����,���˗�,�I�_���x,�n�����x,�ő啗���N��,DTYPE
"17/05/13","00:10",0.0,18.5,91.5,1006.0,348.6,1.1,2.0,1.7,0.00,17.1,18.2,"00:05:44",1
"17/05/13","00:20",0.0,18.4,91.4,1006.0,357.9,0.8,1.8,347.9,0.00,17.0,18.0,"00:10:40",1
"17/05/13","00:30",0.0,18.3,91.6,1006.0,317.0,1.5,3.1,310.5,0.00,16.9,18.2,"00:24:16",1
"17/05/13","00:40",0.0,18.1,91.4,1006.2,355.4,1.1,2.7,350.4,0.00,16.7,18.1,"00:35:36",1
"17/05/13","00:50",0.0,18.0,91.4,1005.7,16.3,0.7,1.4,93.3,0.00,16.6,18.0,"00:40:48",1
"17/05/13","01:00",0.0,17.9,91.3,1006.0,18.3,0.5,1.7,27.9,0.00,16.5,17.8,"00:58:40",1
"17/05/13","01:10",0.0,17.9,91.2,1006.0,97.4,0.6,1.2,79.3,0.00,16.5,17.8,"01:03:36",1
"17/05/13","01:20",0.0,17.8,91.2,1006.2,228.1,0.7,2.1,194.4,0.00,16.4,18.0,"01:15:36",1
"17/05/13","01:30",0.0,17.5,89.8,1006.4,213.5,1.1,2.2,222.0,0.00,15.8,18.0,"01:22:16",1
"17/05/13","01:40",0.0,17.1,90.2,1005.7,188.6,1.0,2.6,145.9,0.00,15.5,17.8,"01:30:40",1
"17/05/13","01:50",0.0,16.7,89.9,1005.5,200.4,1.1,2.6,213.4,0.00,15.1,17.9,"01:46:48",1
"17/05/13","02:00",0.0,16.6,90.7,1005.2,145.5,0.7,1.8,207.0,0.00,15.1,17.8,"01:51:52",1
"17/05/13","02:10",0.0,16.5,91.1,1005.2,328.8,1.3,2.2,340.0,0.00,15.1,17.8,"02:08:40",1
"17/05/13","02:20",0.0,16.2,91.4,1005.2,352.9,1.3,2.2,339.1,0.00,14.8,17.7,"02:10:24",1
"17/05/13","02:30",0.0,15.9,91.4,1005.0,344.6,1.2,2.2,350.2,0.00,14.5,17.8,"02:26:08",1
"17/05/13","02:40",0.0,15.7,91.7,1004.8,5.4,1.1,2.6,346.6,0.00,14.4,17.6,"02:33:36",1
"17/05/13","02:50",0.0,15.6,91.8,1004.5,350.4,1.3,4.1,70.8,0.00,14.3,17.5,"02:48:16",1
"17/05/13","03:00",0.0,15.6,91.8,1004.3,356.9,1.1,2.4,330.8,0.00,14.3,17.6,"02:52:00",1
"17/05/13","03:10",0.0,15.6,92.1,1004.3,310.8,1.3,2.2,338.8,0.00,14.4,17.3,"03:05:44",1
"17/05/13","03:20",0.0,15.5,92.5,1003.8,336.3,0.5,1.4,352.4,0.00,14.3,17.5,"03:15:46",1
"17/05/13","03:30",0.0,15.5,92.9,1004.3,218.9,0.3,1.3,144.4,0.00,14.4,17.5,"03:28:08",1
"17/05/13","03:40",0.0,15.4,93.1,1003.4,61.6,0.7,2.2,136.4,0.00,14.3,17.3,"03:36:48",1
"17/05/13","03:50",0.0,15.4,93.3,1003.6,120.9,1.0,3.2,11.6,0.00,14.4,17.4,"03:42:48",1
"17/05/13","04:00",0.0,15.5,93.2,1003.6,49.1,0.8,1.8,50.5,0.00,14.4,17.3,"03:51:28",1
"17/05/13","04:10",0.0,15.5,93.1,1003.4,28.0,0.6,2.0,61.3,0.00,14.4,17.2,"04:09:44",1
"17/05/13","04:20",0.0,15.5,93.1,1003.1,158.4,0.6,1.7,161.3,0.00,14.4,17.2,"04:13:36",1
"17/05/13","04:30",0.0,15.5,93.3,1003.4,130.3,1.0,2.4,159.8,0.00,14.5,17.3,"04:24:48",1
"17/05/13","04:40",0.0,15.6,93.2,1002.9,91.3,1.0,2.5,115.1,0.00,14.5,17.2,"04:33:52",1
"17/05/13","04:50",0.0,15.6,93.0,1002.4,73.4,0.7,2.4,25.4,0.00,14.5,17.2,"04:40:24",1
"17/05/13","05:00",0.0,15.6,93.1,1002.6,115.8,0.6,1.6,122.4,0.00,14.5,17.1,"04:52:00",1
"17/05/13","05:10",0.0,15.5,93.3,1003.1,162.1,0.7,2.6,109.6,0.00,14.5,17.0,"05:03:52",1
"17/05/13","05:20",0.0,15.4,93.7,1002.9,169.0,0.3,1.1,165.7,0.00,14.4,16.9,"05:11:44",1
"17/05/13","05:30",0.0,15.3,94.0,1002.4,223.8,0.3,0.8,209.4,0.00,14.4,17.1,"05:26:46",1
"17/05/13","05:40",0.0,15.4,94.4,1002.9,256.9,0.3,1.0,270.9,0.00,14.5,17.0,"05:39:52",1
"17/05/13","05:50",0.0,15.4,94.7,1002.4,264.8,0.7,1.2,249.8,0.00,14.6,16.9,"05:45:20",1
"17/05/13","06:00",0.0,15.5,94.9,1002.4,233.7,0.8,1.7,140.8,0.00,14.7,16.7,"05:57:12",1
"17/05/13","06:10",0.0,15.6,95.1,1002.2,149.1,1.1,3.1,52.3,0.00,14.9,16.8,"06:08:32",1
"17/05/13","06:20",0.0,15.7,95.1,1002.6,142.9,1.2,4.3,144.9,0.00,15.0,16.9,"06:18:34",1
"17/05/13","06:30",0.0,15.8,95.0,1002.2,107.7,0.8,2.5,95.7,0.00,15.0,16.7,"06:27:44",1
"17/05/13","06:40",0.0,15.7,95.1,1001.9,64.6,0.7,1.3,102.1,0.00,15.0,16.6,"06:30:24",1
"17/05/13","06:50",0.0,15.7,95.1,1001.9,336.5,0.7,2.0,75.5,0.00,15.0,16.8,"06:45:36",1
"17/05/13","07:00",0.0,15.8,95.1,1001.9,266.7,0.6,1.9,318.2,0.00,15.1,16.9,"06:50:16",1
"17/05/13","07:10",0.0,15.8,95.2,1001.5,262.0,0.7,1.8,321.3,0.00,15.1,16.4,"07:01:44",1
"17/05/13","07:20",0.0,15.8,95.2,1001.2,310.1,1.6,2.4,318.3,0.00,15.1,16.7,"07:12:40",1
"17/05/13","07:30",0.0,15.9,95.3,1001.5,256.1,0.7,2.0,290.5,0.00,15.2,16.9,"07:22:16",1
"17/05/13","07:40",0.0,16.1,95.3,1001.7,211.2,0.6,1.7,212.6,0.00,15.4,16.7,"07:36:16",1
"17/05/13","07:50",0.0,16.0,95.3,1001.0,256.7,0.7,1.4,262.5,0.00,15.3,16.9,"07:42:16",1
"17/05/13","08:00",0.0,16.2,95.3,1001.2,70.1,0.5,1.0,109.3,0.00,15.5,16.7,"07:58:08",1
"17/05/13","08:10",0.2,16.2,95.3,1001.5,271.9,0.2,1.0,348.5,0.00,15.5,16.8,"08:09:52",1
"17/05/13","08:20",0.0,16.2,95.2,1001.2,340.9,0.6,1.4,317.1,0.00,15.5,16.9,"08:16:16",1
"17/05/13","08:30",0.0,16.2,95.3,1001.5,304.6,0.7,1.4,343.1,0.00,15.5,16.6,"08:28:40",1
"17/05/13","08:40",0.0,16.2,95.3,1001.0,343.3,0.7,1.4,314.4,0.00,15.5,16.6,"08:34:40",1
"17/05/13","08:50",0.0,16.2,95.2,1001.0,41.0,0.5,1.4,348.5,0.00,15.5,16.8,"08:46:40",1
"17/05/13","09:00",0.0,16.3,95.2,1001.2,246.8,0.3,0.6,331.4,0.00,15.6,16.7,"08:50:32",1
"17/05/13","09:10",0.0,16.4,95.2,1000.8,309.3,0.5,1.6,51.9,0.00,15.7,16.7,"09:03:36",1
"17/05/13","09:20",0.0,16.5,95.0,1000.5,284.0,0.5,1.7,326.5,0.01,15.7,16.8,"09:10:02",1
"17/05/13","09:30",0.0,16.6,95.1,1000.5,98.9,0.3,1.4,340.1,0.01,15.9,16.7,"09:20:16",1
"17/05/13","09:40",0.0,16.6,94.9,1001.0,277.5,0.7,1.4,299.9,0.01,15.8,16.6,"09:34:32",1
"17/05/13","09:50",0.0,16.6,95.0,1000.8,306.4,0.8,1.9,308.2,0.02,15.8,16.7,"09:47:36",1
"17/05/13","10:00",0.0,16.8,94.9,1000.8,292.1,0.8,2.5,205.1,0.06,16.0,16.8,"09:55:12",1
"17/05/13","10:10",0.0,16.7,94.7,1000.5,70.7,0.8,3.2,46.9,0.04,15.9,16.8,"10:02:10",1
"17/05/13","10:20",0.0,16.8,94.6,1000.5,100.9,0.6,1.4,37.6,0.05,16.0,16.8,"10:16:16",1
"17/05/13","10:30",0.0,17.0,94.7,1000.5,124.3,0.3,1.1,118.5,0.05,16.2,16.8,"10:22:08",1
"17/05/13","10:40",0.0,17.1,94.7,1000.5,280.8,0.5,1.3,322.2,0.04,16.3,16.9,"10:30:32",1
"17/05/13","10:50",0.0,17.1,94.2,1000.3,278.3,0.7,1.1,278.3,0.05,16.2,16.9,"10:46:08",1
"17/05/13","11:00",0.0,17.0,94.4,1000.8,283.0,0.8,1.3,298.1,0.02,16.1,17.1,"10:58:48",1
"17/05/13","11:10",0.0,17.0,94.3,1000.8,318.1,0.6,1.4,270.7,0.03,16.1,16.8,"11:08:32",1
"17/05/13","11:20",0.0,17.1,94.4,1000.8,103.6,0.3,1.6,265.4,0.04,16.2,16.9,"11:11:12",1
"17/05/13","11:30",0.0,17.4,93.8,1000.5,33.2,0.6,1.9,21.3,0.08,16.4,16.9,"11:28:16",1
"17/05/13","11:40",0.0,17.3,93.2,1000.5,18.7,0.5,1.4,18.1,0.04,16.2,16.9,"11:32:24",1
"17/05/13","11:50",0.0,17.6,93.0,1000.0,61.9,0.6,1.4,116.5,0.08,16.5,16.9,"11:47:52",1
"17/05/13","12:00",0.0,17.9,92.6,1000.5,342.7,0.6,1.7,328.4,0.08,16.7,17.1,"11:55:52",1
"17/05/13","12:10",0.0,18.1,92.6,1000.0,34.4,0.5,1.4,335.5,0.07,16.9,16.8,"12:08:00",1
"17/05/13","12:20",0.0,18.0,91.7,1000.0,90.7,0.6,2.2,66.7,0.05,16.7,17.1,"12:11:04",1
"17/05/13","12:30",0.0,18.0,90.8,999.8,4.0,0.6,1.2,340.6,0.05,16.5,17.0,"12:29:20",1
"17/05/13","12:40",0.0,18.2,90.7,999.6,13.4,0.6,1.6,349.8,0.06,16.7,17.0,"12:33:04",1
"17/05/13","12:50",0.0,18.3,89.8,999.6,353.9,0.5,1.3,342.7,0.06,16.6,17.1,"12:44:56",1
"17/05/13","13:00",0.0,18.5,89.8,999.1,3.4,0.6,1.7,45.1,0.07,16.8,17.0,"12:56:56",1
"17/05/13","13:10",0.0,18.6,88.8,999.3,12.5,0.7,2.0,351.5,0.07,16.8,17.1,"13:06:24",1
"17/05/13","13:20",0.0,18.6,87.6,999.6,345.7,1.0,2.0,354.3,0.05,16.5,17.2,"13:19:04",1
"17/05/13","13:30",0.0,18.6,88.2,999.8,4.1,0.7,1.4,350.2,0.05,16.7,17.1,"13:23:36",1
"17/05/13","13:40",0.0,18.9,88.7,999.6,358.0,0.5,1.6,339.6,0.07,17.0,17.0,"13:39:36",1
"17/05/13","13:50",0.0,18.9,88.4,999.8,330.9,1.0,2.0,348.0,0.07,17.0,17.1,"13:41:12",1
"17/05/13","14:00",0.0,19.0,88.3,999.8,335.9,0.6,1.3,322.2,0.08,17.1,17.4,"13:52:40",1
"17/05/13","14:10",0.0,19.2,86.6,999.3,338.2,0.5,1.2,353.3,0.09,17.0,17.4,"14:08:00",1
"17/05/13","14:20",0.0,19.5,84.7,999.1,355.0,0.6,1.6,347.4,0.12,16.9,17.4,"14:14:32",1
"17/05/13","14:30",0.0,19.6,85.1,999.1,337.8,1.0,2.1,343.2,0.11,17.1,17.5,"14:28:08",1
"17/05/13","14:40",0.0,19.5,86.7,999.1,332.4,1.3,2.5,344.1,0.14,17.3,17.3,"14:34:56",1
"17/05/13","14:50",0.0,19.7,85.6,999.3,324.0,1.6,2.6,314.2,0.17,17.3,17.3,"14:43:28",1
"17/05/13","15:00",0.0,19.9,85.1,999.3,314.3,1.3,2.4,315.4,0.17,17.4,17.4,"14:53:36",1
"17/05/13","15:10",0.0,19.7,84.9,999.1,323.8,1.3,2.2,340.3,0.08,17.1,17.5,"15:03:44",1
"17/05/13","15:20",0.0,19.6,84.4,999.1,335.2,1.1,1.9,338.8,0.07,16.9,17.6,"15:12:40",1
"17/05/13","15:30",0.0,19.7,85.2,998.9,331.6,1.1,2.0,340.7,0.12,17.2,17.6,"15:23:44",1
"17/05/13","15:40",0.0,20.0,84.1,998.9,340.4,1.0,1.9,344.4,0.14,17.3,17.6,"15:31:28",1
"17/05/13","15:50",0.0,20.1,81.8,998.9,342.8,0.8,2.0,344.9,0.12,16.9,17.4,"15:41:20",1
"17/05/13","16:00",0.0,20.0,81.8,998.9,316.0,1.1,1.7,315.0,0.10,16.8,17.6,"15:51:52",1
"17/05/13","16:10",0.0,20.0,82.3,999.3,317.9,1.1,1.9,320.7,0.07,16.9,17.5,"16:02:08",1
"17/05/13","16:20",0.0,20.0,82.7,998.9,299.9,0.8,1.7,311.6,0.07,17.0,17.7,"16:12:08",1
"17/05/13","16:30",0.0,20.1,81.4,999.1,298.4,0.6,1.6,317.1,0.10,16.9,17.6,"16:22:16",1
"17/05/13","16:40",0.0,20.2,80.8,999.1,266.8,0.6,1.3,329.9,0.07,16.8,17.7,"16:38:16",1
"17/05/13","16:50",0.0,20.2,80.5,999.1,323.1,0.7,1.3,344.7,0.06,16.8,17.9,"16:42:16",1
"17/05/13","17:00",0.0,20.1,81.5,998.9,270.7,0.6,1.3,326.0,0.05,16.9,17.7,"16:50:32",1
"17/05/13","17:10",0.0,20.0,80.7,999.3,276.0,0.5,1.1,300.7,0.03,16.6,17.8,"17:01:20",1
"17/05/13","17:20",0.0,19.9,82.1,999.8,243.8,0.6,1.3,207.1,0.02,16.8,17.7,"17:16:16",1
"17/05/13","17:30",0.0,19.9,83.3,999.6,314.4,0.6,1.1,344.3,0.02,17.0,17.8,"17:27:04",1
"17/05/13","17:40",0.0,19.7,84.3,999.6,338.6,1.0,1.8,348.8,0.01,17.0,17.8,"17:38:24",1
"17/05/13","17:50",0.0,19.4,84.6,999.6,337.2,1.2,2.1,351.2,0.01,16.8,17.7,"17:45:12",1
"17/05/13","18:00",0.0,19.3,85.8,999.8,333.8,1.2,2.4,323.6,0.01,16.9,17.8,"17:52:00",1
"17/05/13","18:10",0.0,19.0,87.0,999.8,336.6,1.2,2.5,349.2,0.02,16.8,17.7,"18:02:48",1
"17/05/13","18:20",0.0,19.0,87.9,999.8,311.2,0.6,1.1,293.3,0.03,17.0,17.7,"18:14:32",1
"17/05/13","18:30",0.2,19.0,88.1,1000.0,309.6,0.5,0.9,317.7,0.02,17.0,17.6,"18:20:24",1
"17/05/13","18:40",0.0,19.0,88.5,1000.0,301.6,0.6,1.2,354.1,0.01,17.1,17.8,"18:36:40",1
"17/05/13","18:50",0.0,18.9,88.9,1000.5,333.4,0.8,1.6,355.3,0.00,17.1,17.5,"18:41:12",1
"17/05/13","19:00",0.0,18.8,89.2,1000.0,322.9,0.7,1.3,332.7,0.00,17.0,17.5,"18:51:52",1
"17/05/13","19:10",0.0,18.7,89.5,1000.3,306.8,0.6,1.0,306.2,0.00,17.0,17.5,"19:04:48",1
"17/05/13","19:20",0.0,18.6,89.9,1000.3,306.8,0.6,1.2,331.7,0.00,17.0,17.7,"19:11:44",1
"17/05/13","19:30",0.0,18.4,90.5,1000.5,291.3,0.2,1.0,287.5,0.00,16.9,17.7,"19:20:40",1
"17/05/13","19:40",0.0,18.2,91.1,1000.8,284.3,0.6,1.0,334.2,0.00,16.8,17.6,"19:39:12",1
"17/05/13","19:50",0.0,18.1,91.7,1000.8,320.7,0.7,1.3,353.0,0.00,16.8,17.4,"19:42:00",1
"17/05/13","20:00",0.0,18.0,92.3,1001.5,279.2,0.1,0.3,294.3,0.00,16.8,17.6,"19:50:08",1
"17/05/13","20:10",0.0,17.9,92.7,1000.8,336.6,0.3,0.8,335.8,0.00,16.7,17.7,"20:00:40",1
"17/05/13","20:20",0.0,17.9,93.1,1001.0,321.1,0.3,0.8,315.3,0.00,16.8,17.4,"20:14:32",1
"17/05/13","20:30",0.0,17.8,93.4,1001.2,343.4,0.3,0.6,353.4,0.00,16.8,17.3,"20:22:08",1
"17/05/13","20:40",0.0,17.7,93.5,1000.8,332.8,0.5,0.9,342.2,0.00,16.7,17.7,"20:30:40",1
"17/05/13","20:50",0.0,17.6,94.0,1001.5,317.1,0.2,0.8,354.6,0.00,16.7,17.5,"20:47:52",1
"17/05/13","21:00",0.0,17.5,94.1,1001.5,341.6,0.6,1.1,356.1,0.00,16.6,17.6,"20:54:48",1
"17/05/13","21:10",0.0,17.4,94.2,1001.7,281.4,0.1,0.6,306.4,0.00,16.5,17.3,"21:00:08",1
"17/05/13","21:20",0.0,17.4,94.6,1001.7,290.0,0.2,0.9,263.8,0.00,16.6,17.3,"21:19:12",1
"17/05/13","21:30",0.0,17.4,94.8,1001.9,285.7,0.5,1.0,295.3,0.00,16.6,17.3,"21:27:52",1
"17/05/13","21:40",0.0,17.5,94.9,1001.7,311.7,0.5,1.3,357.7,0.00,16.7,17.4,"21:39:20",1
"17/05/13","21:50",0.0,17.5,94.9,1001.7,331.8,1.0,1.4,352.5,0.00,16.7,17.3,"21:43:04",1
"17/05/13","22:00",0.0,17.5,94.9,1002.2,284.8,0.6,1.3,326.5,0.00,16.7,17.4,"21:51:36",1
"17/05/13","22:10",0.0,17.4,95.0,1001.9,287.2,0.5,1.1,322.4,0.00,16.6,17.3,"22:00:02",1
"17/05/13","22:20",0.0,17.4,95.0,1002.4,311.5,0.5,0.9,306.7,0.00,16.6,17.2,"22:10:16",1
"17/05/13","22:30",0.0,17.3,95.0,1002.4,322.4,0.6,1.0,355.2,0.00,16.5,17.4,"22:22:00",1
"17/05/13","22:40",0.0,17.2,95.1,1002.4,285.0,0.5,0.8,271.2,0.00,16.4,17.3,"22:34:40",1
"17/05/13","22:50",0.0,17.0,95.3,1002.2,321.0,0.5,1.0,347.2,0.00,16.3,17.3,"22:40:02",1
"17/05/13","23:00",0.0,16.9,95.4,1002.2,292.1,0.6,0.8,339.0,0.00,16.2,17.2,"22:50:32",1
"17/05/13","23:10",0.0,16.8,95.5,1001.7,288.0,0.5,0.8,230.1,0.00,16.1,17.2,"23:03:52",1
"17/05/13","23:20",0.0,16.6,95.8,1002.2,338.8,0.3,1.0,56.0,0.00,16.0,17.0,"23:19:20",1
"17/05/13","23:30",0.0,16.4,95.4,1002.2,332.3,0.6,0.9,350.6,0.00,15.7,17.1,"23:21:44",1
"17/05/13","23:40",0.0,16.1,95.8,1002.2,316.9,0.6,1.0,326.0,0.00,15.5,16.9,"23:35:44",1
"17/05/13","23:50",0.0,15.7,95.9,1002.4,320.4,0.6,0.9,343.9,0.00,15.1,16.9,"23:40:56",1
"17/05/13","24:00",0.0,15.7,96.3,1002.6,304.2,0.3,0.8,335.2,0.00,15.2,17.0,"23:57:36",1
